C/2018 P5 ( PanSTARRS )

Japanese version
Home page
Updated on October 28, 2018

---------------------------------------------------------------------

* Profile

Discovery Date August 11, 2018
Magnitude 20.9 mag
Discoverer Pan-STARRS 1 telescope (Haleakala)

* Pictures

* Orbital Elements

Epoch 2019 Mar. 18.0 TT = JDT 2458560.5
T 2019 Feb. 26.19535 TT                                 MPCW
q   4.5758830            (2000.0)            P               Q
n   0.02166561     Peri.  131.63036     +0.97414399     +0.21322906
a  12.7435017      Node   216.24241     -0.22587319     +0.92644883
e   0.6409242      Incl.    7.25675     +0.00497787     +0.31020305
P  45.49
From 49 observations 2018 June 16-Oct. 8, mean residual 0".4.

* Magnitudes Graph

        m1 = 10.5 + 5 log d + 10.0 log r

---------------------------------------------------------------------

The orbital elements are published on M.P.E.C. 2018-U70.
The magnitudes graphs are made with Comet for Windows.

---------------------------------------------------------------------

Copyright(C) Seiichi Yoshida (comet@aerith.net). All rights reserved.